Orbital Elements at Epoch 2459000.5 (2020-May-31.0) TDB
Reference: JPL 15 (heliocentric ecliptic J2000)
Element | Value | Uncertainty (1-sigma) | Units |
e | .1463051140437173 | 5.282e-08 | |
a | 2.509657688252153 | 1.7681e-08 | au |
q | 2.14248193396173 | 1.2841e-07 | au |
i | 14.05663021783708 | 6.9252e-06 | deg |
node | 86.56792002962712 | 2.0179e-05 | deg |
peri | 220.2738686852788 | 3.2117e-05 | deg |
M | 54.54876325639123 | 2.5442e-05 | deg |
tp | 2458780.459528046047 (2019-Oct-23.95952805) | 0.00010215 | TDB |
period | 1452.179026151281 3.98 | 1.5346e-05 4.202e-08 | d yr |
n | .2479033187485913 | 2.6197e-09 | deg/d |
Q | 2.876833442542576 | 2.0267e-08 | au |
|
| | Orbit Determination Parameters
Additional Information
|